Location: Newark
(41.6500°N, 71.4833°W)
Time: 21:35:43
(UTC+00:00)

S-56A Canister/Altair - All Passes

Search period start: 26 January 2020 00:00
Search period end: 05 February 2020 00:00
Orbit: 634 x 2498 km, 38.9° (Epoch: 26 January)

Date Brightness Start Highest point End Pass type
(mag) Time Alt. Az. Time Alt. Az. Time Alt. Az.
26 Jan - 00:33:02 10° SW 00:39:34 39° SSE 00:44:20 10° E visible
26 Jan - 02:37:35 10° WSW 02:43:07 64° S 02:47:34 10° E visible
26 Jan - 04:42:02 10° W 04:46:24 42° SSW 04:50:41 10° SE night (unlit)
26 Jan - 06:47:20 10° WSW 06:49:25 13° SSW 06:51:38 10° S night (unlit)
26 Jan - 21:58:34 10° S 22:02:58 15° SSE 22:06:41 10° ESE daylight
26 Jan - 23:59:56 10° SW 00:06:55 38° SSE 00:11:56 10° E visible
27 Jan - 02:04:35 10° WSW 02:10:34 64° S 02:15:09 10° E visible
27 Jan - 04:09:17 10° W 04:13:56 47° SSW 04:18:11 10° ESE night (unlit)
27 Jan - 06:14:21 10° WSW 06:16:54 15° SSW 06:19:33 10° S night (unlit)
27 Jan - 21:25:59 10° S 21:30:09 14° SE 21:33:43 10° ESE daylight
27 Jan - 23:26:46 10° SW 23:34:13 36° SSE 23:39:30 10° E visible
28 Jan - 01:31:29 10° WSW 01:37:59 63° S 01:42:45 10° E visible
28 Jan - 03:36:26 10° W 03:41:26 52° SSW 03:45:45 10° ESE night (unlit)
28 Jan - 05:41:26 10° WSW 05:44:23 17° SSW 05:47:24 10° SSE night (unlit)
28 Jan - 20:53:35 10° SSE 20:57:17 13° SE 21:00:33 10° ESE daylight
28 Jan - 22:53:35 10° SW 23:01:28 34° SSE 23:07:03 10° E visible
29 Jan - 00:58:17 10° WSW 01:05:22 62° S 01:10:22 10° E visible
29 Jan - 03:03:30 10° W 03:08:56 57° SSW 03:13:20 10° ESE visible
29 Jan - 05:08:31 10° WSW 05:11:54 20° SSW 05:15:13 10° SSE night (unlit)
29 Jan - 20:21:28 10° SSE 20:24:24 11° SE 20:27:03 10° SE daylight
29 Jan - 22:20:21 10° SSW 22:28:40 33° SSE 22:34:34 10° E visible
30 Jan - 00:25:01 10° WSW 00:32:43 61° S 00:38:00 10° E visible
30 Jan - 02:30:29 10° W 02:36:24 61° S 02:40:56 10° ESE visible
30 Jan - 04:35:36 10° W 04:39:26 24° SSW 04:43:01 10° SSE night (unlit)
30 Jan - 19:50:14 10° SSE 19:51:28 10° SE 19:52:39 10° SE daylight
30 Jan - 21:47:07 10° SSW 21:55:50 31° SSE 22:02:02 10° E daylight
30 Jan - 23:51:40 10° WSW 00:00:00 59° SSE 00:05:37 10° E visible
31 Jan - 01:57:22 10° W 02:03:50 65° S 02:08:35 10° ESE visible
31 Jan - 04:02:38 10° W 04:06:58 28° SSW 04:10:48 10° SSE night (unlit)
31 Jan - 21:13:53 10° SSW 21:22:55 30° SSE 21:29:28 10° E daylight
31 Jan - 23:18:15 10° WSW 23:27:15 57° SSE 23:33:14 10° E visible
01 Feb - 01:24:08 10° W 01:31:13 68° S 01:36:13 10° ESE visible
01 Feb - 03:29:37 10° W 03:34:30 33° SSW 03:38:35 10° SE night (unlit)
01 Feb - 20:40:42 10° SSW 20:49:58 28° SSE 20:56:49 10° E daylight
01 Feb - 22:44:46 10° WSW 22:54:26 55° SSE 23:00:49 10° E visible
02 Feb - 00:50:49 10° W 00:58:34 70° S 01:03:51 10° E visible
02 Feb - 02:56:33 10° W 03:02:01 39° SSW 03:06:20 10° SE visible
02 Feb - 20:07:33 10° SSW 20:16:58 27° SSE 20:24:05 10° E daylight
02 Feb - 22:11:16 10° SW 22:21:34 53° SSE 22:28:23 10° E daylight
03 Feb - 00:17:23 10° W 00:25:52 72° S 00:31:30 10° E visible
03 Feb - 02:23:23 10° W 02:29:30 45° SSW 02:34:05 10° SE visible
03 Feb - 04:30:43 10° WSW 04:32:04 11° SW 04:33:21 10° SSW night (unlit)
03 Feb - 19:34:27 10° SSW 19:43:55 25° SE 19:51:15 10° E daylight
03 Feb - 21:37:44 10° SW 21:48:37 51° SSE 21:55:55 10° E daylight
03 Feb - 23:43:54 10° W 23:53:06 72° S 23:59:07 10° E visible
04 Feb - 01:50:08 10° W 01:56:57 52° SSW 02:01:49 10° SE visible
04 Feb - 03:56:48 10° WSW 03:59:37 14° SW 04:02:10 10° S night (unlit)
04 Feb - 19:01:28 10° S 19:10:49 23° SE 19:18:18 10° E daylight
04 Feb - 21:04:11 10° SW 21:15:38 49° SSE 21:23:23 10° E daylight
04 Feb - 23:10:18 10° WSW 23:20:17 72° S 23:26:44 10° E visible
